owner,sensor,date,latitude,longitude,vertical_datum,wind_speed,wind_to_direction,wind_speed_of_gust,qcFlag 
DISL,ioos:station:DISL:CATA:1,2015-12-01T00:00:00Z,30.3085,-88.1395,0.0,1.3,110.0,99.0,'11111222,11111222,11144222' 
DISL,ioos:station:DISL:CATA:1,2015-12-01T00:30:00Z,30.3085,-88.1395,0.0,1.9,127.0,99.0,'11111222,11111222,11144222' 
DISL,ioos:station:DISL:CATA:1,2015-12-01T01:00:00Z,30.3085,-88.1395,0.0,1.0,113.0,99.0,'11111222,11111222,11144222' 
DISL,ioos:station:DISL:CATA:1,2015-12-01T01:30:00Z,30.3085,-88.1395,0.0,0.9,115.0,99.0,'11111222,11111222,11144222' 
DISL,ioos:station:DISL:CATA:1,2015-12-01T02:00:00Z,30.3085,-88.1395,0.0,2.0,120.0,99.0,'11111222,11111222,11144222' 
DISL,ioos:station:DISL:CATA:1,2015-12-01T02:30:00Z,30.3085,-88.1395,0.0,2.2,120.0,99.0,'11111222,11111222,11144222' 
DISL,ioos:station:DISL:CATA:1,2015-12-01T03:00:00Z,30.3085,-88.1395,0.0,1.3,114.0,99.0,'11111222,11111222,11144222' 
DISL,ioos:station:DISL:CATA:1,2015-12-01T03:30:00Z,30.3085,-88.1395,0.0,0.7,102.0,99.0,'11111222,11111222,11144222' 
DISL,ioos:station:DISL:CATA:1,2015-12-01T04:00:00Z,30.3085,-88.1395,0.0,1.0,87.0,99.0,'11111222,11111222,11144222' 
DISL,ioos:station:DISL:CATA:1,2015-12-01T04:30:00Z,30.3085,-88.1395,0.0,1.1,110.0,99.0,'11111222,11111222,11144222' 
DISL,ioos:station:DISL:CATA:1,2015-12-01T05:00:00Z,30.3085,-88.1395,0.0,2.4,136.0,99.0,'11111222,11111222,11144222' 
DISL,ioos:station:DISL:CATA:1,2015-12-01T05:30:00Z,30.3085,-88.1395,0.0,3.5,158.0,99.0,'11111222,11111222,11144222' 
DISL,ioos:station:DISL:CATA:1,2015-12-01T06:30:00Z,30.3085,-88.1395,0.0,2.1,176.0,99.0,'11111222,11111222,11144222' 
DISL,ioos:station:DISL:CATA:1,2015-12-01T07:00:00Z,30.3085,-88.1395,0.0,2.2,174.0,99.0,'11111222,11111222,11144222' 
DISL,ioos:station:DISL:CATA:1,2015-12-01T07:30:00Z,30.3085,-88.1395,0.0,1.6,170.0,99.0,'11111222,11111222,11144222' 
DISL,ioos:station:DISL:CATA:1,2015-12-01T08:00:00Z,30.3085,-88.1395,0.0,1.6,182.0,99.0,'11111222,11111222,11144222' 
DISL,ioos:station:DISL:CATA:1,2015-12-01T08:30:00Z,30.3085,-88.1395,0.0,1.8,145.0,99.0,'11111222,11111222,11144222' 
DISL,ioos:station:DISL:CATA:1,2015-12-01T09:00:00Z,30.3085,-88.1395,0.0,1.5,147.0,99.0,'11111222,11111222,11144222' 
DISL,ioos:station:DISL:CATA:1,2015-12-01T09:30:00Z,30.3085,-88.1395,0.0,1.0,133.0,99.0,'11111222,11111222,11144222' 
DISL,ioos:station:DISL:CATA:1,2015-12-01T10:00:00Z,30.3085,-88.1395,0.0,1.4,59.0,99.0,'11111222,11111222,11144222' 
DISL,ioos:station:DISL:CATA:1,2015-12-01T10:30:00Z,30.3085,-88.1395,0.0,1.4,110.0,99.0,'11111222,11111222,11144222' 
DISL,ioos:station:DISL:CATA:1,2015-12-01T11:00:00Z,30.3085,-88.1395,0.0,1.4,174.0,99.0,'11111222,11111222,11144222' 
DISL,ioos:station:DISL:CATA:1,2015-12-01T11:30:00Z,30.3085,-88.1395,0.0,3.1,186.0,99.0,'11111222,11111222,11144222' 
DISL,ioos:station:DISL:CATA:1,2015-12-01T12:00:00Z,30.3085,-88.1395,0.0,2.6,181.0,99.0,'11111222,11111222,11144222' 
DISL,ioos:station:DISL:CATA:1,2015-12-01T12:30:00Z,30.3085,-88.1395,0.0,3.4,206.0,99.0,'11111222,11111222,11144222' 
DISL,ioos:station:DISL:CATA:1,2015-12-01T13:00:00Z,30.3085,-88.1395,0.0,1.6,265.0,99.0,'11111222,11111222,11144222' 
DISL,ioos:station:DISL:CATA:1,2015-12-01T13:30:00Z,30.3085,-88.1395,0.0,1.1,354.0,99.0,'11111222,11111222,11144222' 
DISL,ioos:station:DISL:CATA:1,2015-12-01T14:00:00Z,30.3085,-88.1395,0.0,1.3,102.0,99.0,'11111222,11111222,11144222' 
DISL,ioos:station:DISL:CATA:1,2015-12-01T14:30:00Z,30.3085,-88.1395,0.0,3.3,131.0,99.0,'11111222,11111222,11144222' 
DISL,ioos:station:DISL:CATA:1,2015-12-01T15:00:00Z,30.3085,-88.1395,0.0,1.6,126.0,99.0,'11111222,11111222,11144222' 
DISL,ioos:station:DISL:CATA:1,2015-12-01T15:30:00Z,30.3085,-88.1395,0.0,2.4,137.0,99.0,'11111222,11111222,11144222' 
DISL,ioos:station:DISL:CATA:1,2015-12-01T16:00:00Z,30.3085,-88.1395,0.0,0.9,151.0,99.0,'11111222,11111222,11144222' 
DISL,ioos:station:DISL:CATA:1,2015-12-01T16:30:00Z,30.3085,-88.1395,0.0,0.2,272.0,99.0,'11111222,11111222,11144222' 
DISL,ioos:station:DISL:CATA:1,2015-12-01T17:00:00Z,30.3085,-88.1395,0.0,0.8,250.0,99.0,'11111222,11111222,11144222' 
DISL,ioos:station:DISL:CATA:1,2015-12-01T17:30:00Z,30.3085,-88.1395,0.0,0.0,108.0,99.0,'11111222,11111222,11144222' 
DISL,ioos:station:DISL:CATA:1,2015-12-01T18:00:00Z,30.3085,-88.1395,0.0,1.2,137.0,99.0,'11111222,11111222,11144222' 
DISL,ioos:station:DISL:CATA:1,2015-12-01T18:30:00Z,30.3085,-88.1395,0.0,0.9,182.0,99.0,'11111222,11111222,11144222' 
DISL,ioos:station:DISL:CATA:1,2015-12-01T19:00:00Z,30.3085,-88.1395,0.0,2.8,194.0,99.0,'11111222,11111222,11144222' 
DISL,ioos:station:DISL:CATA:1,2015-12-01T19:30:00Z,30.3085,-88.1395,0.0,2.9,194.0,99.0,'11111222,11111222,11144222' 
DISL,ioos:station:DISL:CATA:1,2015-12-01T20:00:00Z,30.3085,-88.1395,0.0,2.7,208.0,99.0,'11111222,11111222,11144222' 
DISL,ioos:station:DISL:CATA:1,2015-12-01T20:30:00Z,30.3085,-88.1395,0.0,1.9,225.0,99.0,'11111222,11111222,11144222' 
DISL,ioos:station:DISL:CATA:1,2015-12-01T21:00:00Z,30.3085,-88.1395,0.0,1.7,211.0,99.0,'11111222,11111222,11144222' 
DISL,ioos:station:DISL:CATA:1,2015-12-01T21:30:00Z,30.3085,-88.1395,0.0,2.6,186.0,99.0,'11111222,11111222,11144222' 
DISL,ioos:station:DISL:CATA:1,2015-12-01T22:00:00Z,30.3085,-88.1395,0.0,2.8,180.0,99.0,'11111222,11111222,11144222' 
DISL,ioos:station:DISL:CATA:1,2015-12-01T22:30:00Z,30.3085,-88.1395,0.0,2.9,179.0,99.0,'11111222,11111222,11144222' 
DISL,ioos:station:DISL:CATA:1,2015-12-01T23:00:00Z,30.3085,-88.1395,0.0,3.1,186.0,99.0,'11111222,11111222,11144222' 
DISL,ioos:station:DISL:CATA:1,2015-12-01T23:30:00Z,30.3085,-88.1395,0.0,2.6,197.0,99.0,'11111222,11111222,11144222' 
DISL,ioos:station:DISL:CATA:1,2015-12-02T00:00:00Z,30.3085,-88.1395,0.0,2.2,192.0,99.0,'11111222,11111222,11144222' 
DISL,ioos:station:DISL:CATA:1,2015-12-02T00:30:00Z,30.3085,-88.1395,0.0,3.4,195.0,99.0,'11111222,11111222,11144222' 
DISL,ioos:station:DISL:CATA:1,2015-12-02T01:00:00Z,30.3085,-88.1395,0.0,3.5,187.0,99.0,'11111222,11111222,11144222' 
DISL,ioos:station:DISL:CATA:1,2015-12-02T01:30:00Z,30.3085,-88.1395,0.0,3.2,184.0,99.0,'11111222,11111222,11144222' 
DISL,ioos:station:DISL:CATA:1,2015-12-02T02:00:00Z,30.3085,-88.1395,0.0,3.4,189.0,99.0,'11111222,11111222,11144222' 
DISL,ioos:station:DISL:CATA:1,2015-12-02T02:30:00Z,30.3085,-88.1395,0.0,3.4,179.0,99.0,'11111222,11111222,11144222' 
DISL,ioos:station:DISL:CATA:1,2015-12-02T03:00:00Z,30.3085,-88.1395,0.0,3.6,194.0,99.0,'11111222,11111222,11144222' 
DISL,ioos:station:DISL:CATA:1,2015-12-02T03:30:00Z,30.3085,-88.1395,0.0,3.1,181.0,99.0,'11111222,11111222,11144222' 
DISL,ioos:station:DISL:CATA:1,2015-12-02T04:00:00Z,30.3085,-88.1395,0.0,3.3,173.0,99.0,'11111222,11111222,11144222' 
DISL,ioos:station:DISL:CATA:1,2015-12-02T04:30:00Z,30.3085,-88.1395,0.0,3.0,177.0,99.0,'11111222,11111222,11144222' 
DISL,ioos:station:DISL:CATA:1,2015-12-02T05:00:00Z,30.3085,-88.1395,0.0,3.3,188.0,99.0,'11111222,11111222,11144222' 
DISL,ioos:station:DISL:CATA:1,2015-12-02T05:30:00Z,30.3085,-88.1395,0.0,3.3,192.0,99.0,'11111222,11111222,11144222' 
DISL,ioos:station:DISL:CATA:1,2015-12-02T06:30:00Z,30.3085,-88.1395,0.0,3.0,266.0,99.0,'11111222,11111222,11144222' 
DISL,ioos:station:DISL:CATA:1,2015-12-02T07:00:00Z,30.3085,-88.1395,0.0,2.7,287.0,99.0,'11111222,11111222,11144222' 
DISL,ioos:station:DISL:CATA:1,2015-12-02T07:30:00Z,30.3085,-88.1395,0.0,1.7,287.0,99.0,'11111222,11111222,11144222' 
DISL,ioos:station:DISL:CATA:1,2015-12-02T08:00:00Z,30.3085,-88.1395,0.0,2.3,307.0,99.0,'11111222,11111222,11144222' 
DISL,ioos:station:DISL:CATA:1,2015-12-02T08:30:00Z,30.3085,-88.1395,0.0,0.9,295.0,99.0,'11111222,11111222,11144222' 
DISL,ioos:station:DISL:CATA:1,2015-12-02T09:00:00Z,30.3085,-88.1395,0.0,1.7,306.0,99.0,'11111222,11111222,11144222' 
DISL,ioos:station:DISL:CATA:1,2015-12-02T09:30:00Z,30.3085,-88.1395,0.0,2.4,306.0,99.0,'11111222,11111222,11144222' 
DISL,ioos:station:DISL:CATA:1,2015-12-02T10:00:00Z,30.3085,-88.1395,0.0,2.2,306.0,99.0,'11111222,11111222,11144222' 
DISL,ioos:station:DISL:CATA:1,2015-12-02T10:30:00Z,30.3085,-88.1395,0.0,4.1,302.0,99.0,'11111222,11111222,11144222' 
DISL,ioos:station:DISL:CATA:1,2015-12-02T11:00:00Z,30.3085,-88.1395,0.0,5.5,329.0,99.0,'11111222,11111222,11144222' 
DISL,ioos:station:DISL:CATA:1,2015-12-02T11:30:00Z,30.3085,-88.1395,0.0,5.5,321.0,99.0,'11111222,11111222,11144222' 
DISL,ioos:station:DISL:CATA:1,2015-12-02T12:00:00Z,30.3085,-88.1395,0.0,7.6,339.0,99.0,'11111222,11111222,11144222' 
DISL,ioos:station:DISL:CATA:1,2015-12-02T12:30:00Z,30.3085,-88.1395,0.0,4.9,2.0,99.0,'11111222,11111222,11144222' 
DISL,ioos:station:DISL:CATA:1,2015-12-02T13:00:00Z,30.3085,-88.1395,0.0,6.7,4.0,99.0,'11111222,11111222,11144222' 
DISL,ioos:station:DISL:CATA:1,2015-12-02T13:30:00Z,30.3085,-88.1395,0.0,5.7,17.0,99.0,'11111222,11111222,11144222' 
DISL,ioos:station:DISL:CATA:1,2015-12-02T14:00:00Z,30.3085,-88.1395,0.0,6.0,352.0,99.0,'11111222,11111222,11144222' 
DISL,ioos:station:DISL:CATA:1,2015-12-02T14:30:00Z,30.3085,-88.1395,0.0,7.0,14.0,99.0,'11111222,11111222,11144222' 
DISL,ioos:station:DISL:CATA:1,2015-12-02T15:00:00Z,30.3085,-88.1395,0.0,7.0,19.0,99.0,'11111222,11111222,11144222' 
DISL,ioos:station:DISL:CATA:1,2015-12-02T15:30:00Z,30.3085,-88.1395,0.0,4.7,20.0,99.0,'11111222,11111222,11144222' 
DISL,ioos:station:DISL:CATA:1,2015-12-02T16:00:00Z,30.3085,-88.1395,0.0,5.6,41.0,99.0,'11111222,11111222,11144222' 
DISL,ioos:station:DISL:CATA:1,2015-12-02T16:30:00Z,30.3085,-88.1395,0.0,5.8,36.0,99.0,'11111222,11111222,11144222' 
DISL,ioos:station:DISL:CATA:1,2015-12-02T17:00:00Z,30.3085,-88.1395,0.0,5.1,40.0,99.0,'11111222,11111222,11144222' 
DISL,ioos:station:DISL:CATA:1,2015-12-02T17:30:00Z,30.3085,-88.1395,0.0,5.6,360.0,99.0,'11111222,11144222,11144222' 
DISL,ioos:station:DISL:CATA:1,2015-12-02T18:00:00Z,30.3085,-88.1395,0.0,2.9,32.0,99.0,'11111222,11111222,11144222' 
DISL,ioos:station:DISL:CATA:1,2015-12-02T18:30:00Z,30.3085,-88.1395,0.0,5.2,350.0,99.0,'11111222,11111222,11144222' 
DISL,ioos:station:DISL:CATA:1,2015-12-02T19:00:00Z,30.3085,-88.1395,0.0,5.0,352.0,99.0,'11111222,11111222,11144222' 
DISL,ioos:station:DISL:CATA:1,2015-12-02T19:30:00Z,30.3085,-88.1395,0.0,4.6,12.0,99.0,'11111222,11111222,11144222' 
DISL,ioos:station:DISL:CATA:1,2015-12-02T20:00:00Z,30.3085,-88.1395,0.0,4.4,352.0,99.0,'11111222,11111222,11144222' 
DISL,ioos:station:DISL:CATA:1,2015-12-02T20:30:00Z,30.3085,-88.1395,0.0,3.4,20.0,99.0,'11111222,11111222,11144222' 
DISL,ioos:station:DISL:CATA:1,2015-12-02T21:00:00Z,30.3085,-88.1395,0.0,3.9,14.0,99.0,'11111222,11111222,11144222' 
DISL,ioos:station:DISL:CATA:1,2015-12-02T21:30:00Z,30.3085,-88.1395,0.0,5.4,353.0,99.0,'11111222,11111222,11144222' 
DISL,ioos:station:DISL:CATA:1,2015-12-02T22:00:00Z,30.3085,-88.1395,0.0,4.3,4.0,99.0,'11111222,11111222,11144222' 
DISL,ioos:station:DISL:CATA:1,2015-12-02T22:30:00Z,30.3085,-88.1395,0.0,4.7,355.0,99.0,'11111222,11111222,11144222' 
DISL,ioos:station:DISL:CATA:1,2015-12-02T23:00:00Z,30.3085,-88.1395,0.0,4.9,351.0,99.0,'11111222,11111222,11144222' 
DISL,ioos:station:DISL:CATA:1,2015-12-02T23:30:00Z,30.3085,-88.1395,0.0,5.2,348.0,99.0,'11111222,11111222,11144222' 
DISL,ioos:station:DISL:CATA:1,2015-12-03T00:00:00Z,30.3085,-88.1395,0.0,4.1,334.0,99.0,'11111222,11111222,11144222' 
DISL,ioos:station:DISL:CATA:1,2015-12-03T00:30:00Z,30.3085,-88.1395,0.0,4.2,328.0,99.0,'11111222,11111222,11144222' 
DISL,ioos:station:DISL:CATA:1,2015-12-03T01:00:00Z,30.3085,-88.1395,0.0,5.4,332.0,99.0,'11111222,11111222,11144222' 
DISL,ioos:station:DISL:CATA:1,2015-12-03T01:30:00Z,30.3085,-88.1395,0.0,6.0,336.0,99.0,'11111222,11111222,11144222' 
DISL,ioos:station:DISL:CATA:1,2015-12-03T02:00:00Z,30.3085,-88.1395,0.0,6.1,346.0,99.0,'11111222,11111222,11144222' 
DISL,ioos:station:DISL:CATA:1,2015-12-03T02:30:00Z,30.3085,-88.1395,0.0,5.6,350.0,99.0,'11111222,11111222,11144222' 
DISL,ioos:station:DISL:CATA:1,2015-12-03T03:00:00Z,30.3085,-88.1395,0.0,5.1,355.0,99.0,'11111222,11111222,11144222' 
DISL,ioos:station:DISL:CATA:1,2015-12-03T03:30:00Z,30.3085,-88.1395,0.0,5.6,339.0,99.0,'11111222,11111222,11144222' 
DISL,ioos:station:DISL:CATA:1,2015-12-03T04:00:00Z,30.3085,-88.1395,0.0,4.6,356.0,99.0,'11111222,11111222,11144222' 
DISL,ioos:station:DISL:CATA:1,2015-12-03T04:30:00Z,30.3085,-88.1395,0.0,4.3,357.0,99.0,'11111222,11111222,11144222' 
DISL,ioos:station:DISL:CATA:1,2015-12-03T05:00:00Z,30.3085,-88.1395,0.0,4.0,357.0,99.0,'11111222,11111222,11144222' 
DISL,ioos:station:DISL:CATA:1,2015-12-03T05:30:00Z,30.3085,-88.1395,0.0,4.2,2.0,99.0,'11111222,11111222,11144222' 
DISL,ioos:station:DISL:CATA:1,2015-12-03T06:30:00Z,30.3085,-88.1395,0.0,4.0,358.0,99.0,'11111222,11111222,11144222' 
DISL,ioos:station:DISL:CATA:1,2015-12-03T07:00:00Z,30.3085,-88.1395,0.0,4.0,358.0,99.0,'11111222,11111222,11144222' 
DISL,ioos:station:DISL:CATA:1,2015-12-03T07:30:00Z,30.3085,-88.1395,0.0,3.9,355.0,99.0,'11111222,11111222,11144222' 
DISL,ioos:station:DISL:CATA:1,2015-12-03T08:00:00Z,30.3085,-88.1395,0.0,3.6,359.0,99.0,'11111222,11111222,11144222' 
DISL,ioos:station:DISL:CATA:1,2015-12-03T08:30:00Z,30.3085,-88.1395,0.0,4.4,2.0,99.0,'11111222,11111222,11144222' 
DISL,ioos:station:DISL:CATA:1,2015-12-03T09:00:00Z,30.3085,-88.1395,0.0,5.4,9.0,99.0,'11111222,11111222,11144222' 
DISL,ioos:station:DISL:CATA:1,2015-12-03T09:30:00Z,30.3085,-88.1395,0.0,5.9,10.0,99.0,'11111222,11111222,11144222' 
DISL,ioos:station:DISL:CATA:1,2015-12-03T10:00:00Z,30.3085,-88.1395,0.0,5.4,8.0,99.0,'11111222,11111222,11144222' 
DISL,ioos:station:DISL:CATA:1,2015-12-03T10:30:00Z,30.3085,-88.1395,0.0,4.4,11.0,99.0,'11111222,11111222,11144222' 
DISL,ioos:station:DISL:CATA:1,2015-12-03T11:00:00Z,30.3085,-88.1395,0.0,5.3,6.0,99.0,'11111222,11111222,11144222' 
DISL,ioos:station:DISL:CATA:1,2015-12-03T11:30:00Z,30.3085,-88.1395,0.0,5.8,9.0,99.0,'11111222,11111222,11144222' 
DISL,ioos:station:DISL:CATA:1,2015-12-03T12:00:00Z,30.3085,-88.1395,0.0,5.2,9.0,99.0,'11111222,11111222,11144222' 
DISL,ioos:station:DISL:CATA:1,2015-12-03T12:30:00Z,30.3085,-88.1395,0.0,4.7,8.0,99.0,'11111222,11111222,11144222' 
DISL,ioos:station:DISL:CATA:1,2015-12-03T13:00:00Z,30.3085,-88.1395,0.0,4.5,6.0,99.0,'11111222,11111222,11144222' 
DISL,ioos:station:DISL:CATA:1,2015-12-03T13:30:00Z,30.3085,-88.1395,0.0,4.9,8.0,99.0,'11111222,11111222,11144222' 
DISL,ioos:station:DISL:CATA:1,2015-12-03T14:00:00Z,30.3085,-88.1395,0.0,5.4,4.0,99.0,'11111222,11111222,11144222' 
DISL,ioos:station:DISL:CATA:1,2015-12-03T14:30:00Z,30.3085,-88.1395,0.0,5.0,13.0,99.0,'11111222,11111222,11144222' 
DISL,ioos:station:DISL:CATA:1,2015-12-03T15:00:00Z,30.3085,-88.1395,0.0,5.1,13.0,99.0,'11111222,11111222,11144222' 
DISL,ioos:station:DISL:CATA:1,2015-12-03T15:30:00Z,30.3085,-88.1395,0.0,8.1,36.0,99.0,'11111222,11111222,11144222' 
DISL,ioos:station:DISL:CATA:1,2015-12-03T16:00:00Z,30.3085,-88.1395,0.0,8.7,40.0,99.0,'11111222,11111222,11144222' 
DISL,ioos:station:DISL:CATA:1,2015-12-03T16:30:00Z,30.3085,-88.1395,0.0,7.3,30.0,99.0,'11111222,11111222,11144222' 
DISL,ioos:station:DISL:CATA:1,2015-12-03T17:00:00Z,30.3085,-88.1395,0.0,7.2,20.0,99.0,'11111222,11111222,11144222' 
DISL,ioos:station:DISL:CATA:1,2015-12-03T17:30:00Z,30.3085,-88.1395,0.0,7.0,28.0,99.0,'11111222,11111222,11144222' 
DISL,ioos:station:DISL:CATA:1,2015-12-03T18:00:00Z,30.3085,-88.1395,0.0,6.8,19.0,99.0,'11111222,11111222,11144222' 
DISL,ioos:station:DISL:CATA:1,2015-12-03T18:30:00Z,30.3085,-88.1395,0.0,6.9,21.0,99.0,'11111222,11111222,11144222' 
DISL,ioos:station:DISL:CATA:1,2015-12-03T19:00:00Z,30.3085,-88.1395,0.0,6.7,17.0,99.0,'11111222,11111222,11144222' 
DISL,ioos:station:DISL:CATA:1,2015-12-03T19:30:00Z,30.3085,-88.1395,0.0,5.8,23.0,99.0,'11111222,11111222,11144222' 
DISL,ioos:station:DISL:CATA:1,2015-12-03T20:00:00Z,30.3085,-88.1395,0.0,4.6,16.0,99.0,'11111222,11111222,11144222' 
DISL,ioos:station:DISL:CATA:1,2015-12-03T20:30:00Z,30.3085,-88.1395,0.0,4.9,15.0,99.0,'11111222,11111222,11144222' 
DISL,ioos:station:DISL:CATA:1,2015-12-03T21:00:00Z,30.3085,-88.1395,0.0,4.7,4.0,99.0,'11111222,11111222,11144222' 
DISL,ioos:station:DISL:CATA:1,2015-12-03T21:30:00Z,30.3085,-88.1395,0.0,5.6,3.0,99.0,'11111222,11111222,11144222' 
DISL,ioos:station:DISL:CATA:1,2015-12-03T22:00:00Z,30.3085,-88.1395,0.0,6.1,358.0,99.0,'11111222,11111222,11144222' 
DISL,ioos:station:DISL:CATA:1,2015-12-03T22:30:00Z,30.3085,-88.1395,0.0,6.1,360.0,99.0,'11111222,11144222,11144222' 
DISL,ioos:station:DISL:CATA:1,2015-12-03T23:00:00Z,30.3085,-88.1395,0.0,5.2,359.0,99.0,'11111222,11111222,11144222' 
DISL,ioos:station:DISL:CATA:1,2015-12-03T23:30:00Z,30.3085,-88.1395,0.0,5.2,356.0,99.0,'11111222,11111222,11144222' 
DISL,ioos:station:DISL:CATA:1,2015-12-04T00:00:00Z,30.3085,-88.1395,0.0,6.0,0.0,99.0,'11111222,11111222,11144222' 
DISL,ioos:station:DISL:CATA:1,2015-12-04T00:30:00Z,30.3085,-88.1395,0.0,5.7,1.0,99.0,'11111222,11111222,11144222' 
DISL,ioos:station:DISL:CATA:1,2015-12-04T01:00:00Z,30.3085,-88.1395,0.0,6.3,13.0,99.0,'11111222,11111222,11144222' 
DISL,ioos:station:DISL:CATA:1,2015-12-04T01:30:00Z,30.3085,-88.1395,0.0,6.0,9.0,99.0,'11111222,11111222,11144222' 
DISL,ioos:station:DISL:CATA:1,2015-12-04T02:00:00Z,30.3085,-88.1395,0.0,6.4,6.0,99.0,'11111222,11111222,11144222' 
DISL,ioos:station:DISL:CATA:1,2015-12-04T02:30:00Z,30.3085,-88.1395,0.0,6.1,11.0,99.0,'11111222,11111222,11144222' 
DISL,ioos:station:DISL:CATA:1,2015-12-04T03:00:00Z,30.3085,-88.1395,0.0,5.6,11.0,99.0,'11111222,11111222,11144222' 
DISL,ioos:station:DISL:CATA:1,2015-12-04T03:30:00Z,30.3085,-88.1395,0.0,4.7,12.0,99.0,'11111222,11111222,11144222' 
DISL,ioos:station:DISL:CATA:1,2015-12-04T04:00:00Z,30.3085,-88.1395,0.0,5.2,16.0,99.0,'11111222,11111222,11144222' 
DISL,ioos:station:DISL:CATA:1,2015-12-04T04:30:00Z,30.3085,-88.1395,0.0,6.5,13.0,99.0,'11111222,11111222,11144222' 
DISL,ioos:station:DISL:CATA:1,2015-12-04T05:00:00Z,30.3085,-88.1395,0.0,5.5,6.0,99.0,'11111222,11111222,11144222' 
DISL,ioos:station:DISL:CATA:1,2015-12-04T05:30:00Z,30.3085,-88.1395,0.0,4.7,7.0,99.0,'11111222,11111222,11144222' 
DISL,ioos:station:DISL:CATA:1,2015-12-04T06:30:00Z,30.3085,-88.1395,0.0,4.8,12.0,99.0,'11111222,11111222,11144222' 
DISL,ioos:station:DISL:CATA:1,2015-12-04T07:00:00Z,30.3085,-88.1395,0.0,5.9,14.0,99.0,'11111222,11111222,11144222' 
DISL,ioos:station:DISL:CATA:1,2015-12-04T07:30:00Z,30.3085,-88.1395,0.0,8.3,33.0,99.0,'11111222,11111222,11144222' 
DISL,ioos:station:DISL:CATA:1,2015-12-04T08:00:00Z,30.3085,-88.1395,0.0,4.6,12.0,99.0,'11111222,11111222,11144222' 
DISL,ioos:station:DISL:CATA:1,2015-12-04T08:30:00Z,30.3085,-88.1395,0.0,4.9,11.0,99.0,'11111222,11111222,11144222' 
DISL,ioos:station:DISL:CATA:1,2015-12-04T09:00:00Z,30.3085,-88.1395,0.0,5.5,18.0,99.0,'11111222,11111222,11144222' 
DISL,ioos:station:DISL:CATA:1,2015-12-04T09:30:00Z,30.3085,-88.1395,0.0,5.4,10.0,99.0,'11111222,11111222,11144222' 
DISL,ioos:station:DISL:CATA:1,2015-12-04T10:00:00Z,30.3085,-88.1395,0.0,4.5,5.0,99.0,'11111222,11111222,11144222' 
DISL,ioos:station:DISL:CATA:1,2015-12-04T10:30:00Z,30.3085,-88.1395,0.0,4.9,15.0,99.0,'11111222,11111222,11144222' 
DISL,ioos:station:DISL:CATA:1,2015-12-04T11:00:00Z,30.3085,-88.1395,0.0,5.5,14.0,99.0,'11111222,11111222,11144222' 
DISL,ioos:station:DISL:CATA:1,2015-12-04T11:30:00Z,30.3085,-88.1395,0.0,9.3,36.0,99.0,'11111222,11111222,11144222' 
DISL,ioos:station:DISL:CATA:1,2015-12-04T12:00:00Z,30.3085,-88.1395,0.0,9.6,36.0,99.0,'11111222,11111222,11144222' 
DISL,ioos:station:DISL:CATA:1,2015-12-04T12:30:00Z,30.3085,-88.1395,0.0,9.3,39.0,99.0,'11111222,11111222,11144222' 
DISL,ioos:station:DISL:CATA:1,2015-12-04T13:00:00Z,30.3085,-88.1395,0.0,9.2,38.0,99.0,'11111222,11111222,11144222' 
DISL,ioos:station:DISL:CATA:1,2015-12-04T13:30:00Z,30.3085,-88.1395,0.0,9.6,44.0,99.0,'11111222,11111222,11144222' 
DISL,ioos:station:DISL:CATA:1,2015-12-04T14:30:00Z,30.3085,-88.1395,0.0,8.4,36.0,99.0,'11111222,11111222,11144222' 
DISL,ioos:station:DISL:CATA:1,2015-12-04T15:00:00Z,30.3085,-88.1395,0.0,7.8,36.0,99.0,'11111222,11111222,11144222' 
DISL,ioos:station:DISL:CATA:1,2015-12-04T15:30:00Z,30.3085,-88.1395,0.0,7.4,39.0,99.0,'11111222,11111222,11144222' 
DISL,ioos:station:DISL:CATA:1,2015-12-04T16:00:00Z,30.3085,-88.1395,0.0,6.9,35.0,99.0,'11111222,11111222,11144222' 
DISL,ioos:station:DISL:CATA:1,2015-12-04T16:30:00Z,30.3085,-88.1395,0.0,6.3,39.0,99.0,'11111222,11111222,11144222' 
DISL,ioos:station:DISL:CATA:1,2015-12-04T17:00:00Z,30.3085,-88.1395,0.0,5.7,34.0,99.0,'11111222,11111222,11144222' 
DISL,ioos:station:DISL:CATA:1,2015-12-04T17:30:00Z,30.3085,-88.1395,0.0,5.3,29.0,99.0,'11111222,11111222,11144222' 
DISL,ioos:station:DISL:CATA:1,2015-12-04T18:00:00Z,30.3085,-88.1395,0.0,4.7,37.0,99.0,'11111222,11111222,11144222' 
DISL,ioos:station:DISL:CATA:1,2015-12-04T18:30:00Z,30.3085,-88.1395,0.0,4.5,38.0,99.0,'11111222,11111222,11144222' 
DISL,ioos:station:DISL:CATA:1,2015-12-04T19:00:00Z,30.3085,-88.1395,0.0,4.6,33.0,99.0,'11111222,11111222,11144222' 
DISL,ioos:station:DISL:CATA:1,2015-12-04T19:30:00Z,30.3085,-88.1395,0.0,4.7,30.0,99.0,'11111222,11111222,11144222' 
DISL,ioos:station:DISL:CATA:1,2015-12-04T20:00:00Z,30.3085,-88.1395,0.0,5.3,21.0,99.0,'11111222,11111222,11144222' 
DISL,ioos:station:DISL:CATA:1,2015-12-04T20:30:00Z,30.3085,-88.1395,0.0,5.4,23.0,99.0,'11111222,11111222,11144222' 
DISL,ioos:station:DISL:CATA:1,2015-12-04T21:00:00Z,30.3085,-88.1395,0.0,4.7,22.0,99.0,'11111222,11111222,11144222' 
DISL,ioos:station:DISL:CATA:1,2015-12-04T21:30:00Z,30.3085,-88.1395,0.0,5.1,18.0,99.0,'11111222,11111222,11144222' 
DISL,ioos:station:DISL:CATA:1,2015-12-04T22:00:00Z,30.3085,-88.1395,0.0,4.6,23.0,99.0,'11111222,11111222,11144222' 
DISL,ioos:station:DISL:CATA:1,2015-12-04T22:30:00Z,30.3085,-88.1395,0.0,4.2,11.0,99.0,'11111222,11111222,11144222' 
DISL,ioos:station:DISL:CATA:1,2015-12-04T23:00:00Z,30.3085,-88.1395,0.0,3.1,5.0,99.0,'11111222,11111222,11144222' 
DISL,ioos:station:DISL:CATA:1,2015-12-04T23:30:00Z,30.3085,-88.1395,0.0,4.8,14.0,99.0,'11111222,11111222,11144222' 
DISL,ioos:station:DISL:CATA:1,2015-12-05T00:00:00Z,30.3085,-88.1395,0.0,4.8,18.0,99.0,'11111222,11111222,11144222' 
DISL,ioos:station:DISL:CATA:1,2015-12-05T00:30:00Z,30.3085,-88.1395,0.0,4.9,13.0,99.0,'11111222,11111222,11144222' 
DISL,ioos:station:DISL:CATA:1,2015-12-05T01:00:00Z,30.3085,-88.1395,0.0,7.8,36.0,99.0,'11111222,11111222,11144222' 
DISL,ioos:station:DISL:CATA:1,2015-12-05T01:30:00Z,30.3085,-88.1395,0.0,8.8,45.0,99.0,'11111222,11111222,11144222' 
DISL,ioos:station:DISL:CATA:1,2015-12-05T02:00:00Z,30.3085,-88.1395,0.0,8.9,42.0,99.0,'11111222,11111222,11144222' 
DISL,ioos:station:DISL:CATA:1,2015-12-05T02:30:00Z,30.3085,-88.1395,0.0,9.1,45.0,99.0,'11111222,11111222,11144222' 
DISL,ioos:station:DISL:CATA:1,2015-12-05T03:00:00Z,30.3085,-88.1395,0.0,8.7,45.0,99.0,'11111222,11111222,11144222' 
DISL,ioos:station:DISL:CATA:1,2015-12-05T03:30:00Z,30.3085,-88.1395,0.0,7.7,51.0,99.0,'11111222,11111222,11144222' 
DISL,ioos:station:DISL:CATA:1,2015-12-05T04:00:00Z,30.3085,-88.1395,0.0,7.2,55.0,99.0,'11111222,11111222,11144222' 
DISL,ioos:station:DISL:CATA:1,2015-12-05T04:30:00Z,30.3085,-88.1395,0.0,7.2,58.0,99.0,'11111222,11111222,11144222' 
DISL,ioos:station:DISL:CATA:1,2015-12-05T05:00:00Z,30.3085,-88.1395,0.0,7.1,64.0,99.0,'11111222,11111222,11144222' 
DISL,ioos:station:DISL:CATA:1,2015-12-05T05:30:00Z,30.3085,-88.1395,0.0,6.8,64.0,99.0,'11111222,11111222,11144222' 
DISL,ioos:station:DISL:CATA:1,2015-12-05T06:30:00Z,30.3085,-88.1395,0.0,7.0,59.0,99.0,'11111222,11111222,11144222' 
DISL,ioos:station:DISL:CATA:1,2015-12-05T07:00:00Z,30.3085,-88.1395,0.0,7.0,56.0,99.0,'11111222,11111222,11144222' 
DISL,ioos:station:DISL:CATA:1,2015-12-05T07:30:00Z,30.3085,-88.1395,0.0,7.2,63.0,99.0,'11111222,11111222,11144222' 
DISL,ioos:station:DISL:CATA:1,2015-12-05T08:00:00Z,30.3085,-88.1395,0.0,6.4,59.0,99.0,'11111222,11111222,11144222' 
DISL,ioos:station:DISL:CATA:1,2015-12-05T08:30:00Z,30.3085,-88.1395,0.0,6.1,66.0,99.0,'11111222,11111222,11144222' 
DISL,ioos:station:DISL:CATA:1,2015-12-05T09:00:00Z,30.3085,-88.1395,0.0,6.2,62.0,99.0,'11111222,11111222,11144222' 